QPF
0.00 0.00 0.00 0.00 0.00 0.00 0.00 0.00 0.00 0.00 0.00 0.00 0.00 0.00 0.00 0.00 0.00 0.00 0.00 0.00 0.00 0.00 0.00 0.00 0.00 0.00 0.00 0.00 0.00 0.00 0.00 0.00 0.01 0.01 0.01 0.00 0.00 0.00 0.00 0.00 0.00 0.00 0.01 0.02 0.03 0.04 0.04 0.03 0.03
0.00 0.00 0.00 0.00 0.00 0.00 0.00 0.00 0.00 0.00 0.00 0.00 0.00 0.00 0.00 0.00 0.00 0.00 0.00 0.00 0.00 0.00 0.00 0.00 0.00 0.00 0.00 0.00 0.00 0.00 0.00 0.00 0.00 0.00 0.00 0.00 0.00 0.00 0.00 0.00 0.00 0.00 0.00 0.01 0.01 0.01 0.01 0.02 0.01
0.00 0.00 0.00 0.00 0.00 0.00 0.00 0.00 0.00 0.00 0.00 0.00 0.00 0.00 0.00 0.00 0.00 0.00 0.00 0.00 0.00 0.00 0.00 0.00 0.00 0.00 0.00 0.00 0.00 0.00 0.00 0.00 0.00 0.00 0.00 0.00 0.00 0.00 0.00 0.00 0.00 0.00 0.00 0.00 0.00 0.00 0.01 0.01 0.00
0.00 0.00 0.00 0.00 0.00 0.00 0.00 0.00 0.00 0.00 0.00 0.00 0.00 0.00 0.00 0.00 0.00 0.00 0.00 0.00 0.00 0.00 0.00 0.00 0.00 0.00 0.00 0.00 0.00 0.00 0.00 0.00 0.00 0.00 0.00 0.00 0.00 0.00 0.00 0.00 0.00 0.00 0.00 0.00 0.00 0.00 0.00 0.00 0.00
0.00 0.00 0.00 0.00 0.00 0.00 0.00 0.00 0.00 0.00 0.00 0.00 0.00 0.00 0.00 0.00 0.00 0.00 0.00 0.00 0.00 0.00 0.00 0.00 0.00 0.00 0.00 0.00 0.00 0.00 0.00 0.00 0.00 0.00 0.00 0.00 0.00 0.00 0.00 0.00 0.00 0.00 0.00 0.00 0.00 0.00 0.00 0.00 0.00
0.00 0.00 0.00 0.00 0.00 0.00 0.00 0.00 0.00 0.00 0.00 0.00 0.00 0.00 0.00 0.00 0.00 0.00 0.00 0.00 0.00 0.00 0.00 0.00 0.00 0.00 0.00 0.00 0.00 0.00 0.00 0.00 0.00 0.00 0.00 0.00 0.00 0.00 0.00 0.00 0.00 0.00 0.00 0.00 0.00 0.00 0.00 0.00 0.00
0.00 0.00 0.00 0.00 0.00 0.00 0.00 0.00 0.00 0.00 0.00 0.00 0.00 0.00 0.00 0.00 0.00 0.00 0.00 0.00 0.00 0.00 0.00 0.00 0.00 0.00 0.00 0.00 0.00 0.00 0.00 0.00 0.00 0.00 0.00 0.00 0.00 0.00 0.00 0.00 0.00 0.00 0.00 0.00 0.00 0.00 0.00 0.00 0.00
0.00 0.00 0.00 0.00 0.00 0.00 0.00 0.00 0.00 0.00 0.00 0.00 0.00 0.00 0.00 0.00 0.00 0.00 0.00 0.00 0.00 0.00 0.00 0.00 0.00 0.01 0.01 0.00 0.00 0.00 0.00 0.00 0.00 0.00 0.00 0.00 0.00 0.00 0.00 0.00 0.00 0.00 0.00 0.00 0.00 0.00 0.00 0.00 0.00
0.00 0.00 0.00 0.00 0.00 0.00 0.00 0.00 0.00 0.00 0.00 0.00 0.00 0.00 0.00 0.00 0.00 0.00 0.00 0.00 0.00 0.00 0.00 0.00 0.00 0.01 0.01 0.01 0.00 0.00 0.00 0.00 0.00 0.00 0.00 0.00 0.00 0.00 0.00 0.00 0.00 0.00 0.00 0.00 0.00 0.00 0.00 0.00 0.00
0.00 0.00 0.00 0.00 0.00 0.00 0.00 0.00 0.00 0.00 0.00 0.00 0.00 0.00 0.00 0.00 0.00 0.00 0.00 0.00 0.00 0.00 0.00 0.00 0.00 0.00 0.00 0.01 0.00 0.00 0.00 0.00 0.00 0.00 0.00 0.00 0.00 0.00 0.00 0.00 0.00 0.00 0.00 0.00 0.00 0.00 0.00 0.00 0.00
0.00 0.00 0.00 0.00 0.00 0.00 0.00 0.00 0.00 0.00 0.00 0.00 0.00 0.00 0.00 0.00 0.00 0.00 0.00 0.00 0.00 0.00 0.00 0.00 0.00 0.00 0.00 0.00 0.00 0.00 0.00 0.00 0.00 0.00 0.00 0.00 0.00 0.00 0.00 0.00 0.00 0.00 0.00 0.00 0.00 0.00 0.00 0.00 0.00
0.00 0.00 0.00 0.00 0.00 0.00 0.00 0.00 0.00 0.00 0.00 0.00 0.00 0.00 0.00 0.00 0.00 0.00 0.00 0.00 0.00 0.00 0.00 0.00 0.00 0.00 0.00 0.00 0.00 0.00 0.00 0.00 0.00 0.00 0.00 0.00 0.00 0.00 0.00 0.00 0.00 0.00 0.00 0.00 0.00 0.00 0.00 0.00 0.00
0.00 0.00 0.00 0.00 0.00 0.00 0.00 0.00 0.00 0.00 0.00 0.00 0.00 0.00 0.00 0.00 0.00 0.00 0.00 0.00 0.01 0.00 0.00 0.00 0.00 0.01 0.00 0.00 0.00 0.00 0.00 0.00 0.00 0.00 0.00 0.00 0.00 0.00 0.00 0.00 0.00 0.00 0.00 0.00 0.00 0.00 0.00 0.00 0.00
0.00 0.00 0.00 0.00 0.00 0.00 0.00 0.00 0.00 0.00 0.00 0.00 0.00 0.00 0.00 0.00 0.00 0.00 0.00 0.00 0.00 0.00 0.00 0.00 0.00 0.00 0.01 0.00 0.00 0.00 0.00 0.00 0.00 0.00 0.00 0.00 0.00 0.00 0.00 0.00 0.00 0.00 0.00 0.00 0.00 0.00 0.00 0.00 0.00
0.00 0.00 0.00 0.00 0.00 0.00 0.00 0.00 0.00 0.00 0.00 0.00 0.00 0.00 0.00 0.00 0.00 0.00 0.00 0.00 0.00 0.00 0.00 0.00 0.00 0.00 0.00 0.00 0.01 0.00 0.00 0.00 0.00 0.00 0.00 0.00 0.00 0.00 0.00 0.00 0.00 0.00 0.00 0.00 0.00 0.00 0.00 0.00 0.00
0.00 0.00 0.00 0.00 0.00 0.00 0.00 0.00 0.00 0.00 0.00 0.00 0.00 0.00 0.00 0.00 0.00 0.00 0.00 0.00 0.00 0.00 0.00 0.00 0.00 0.00 0.00 0.01 0.01 0.01 0.00 0.00 0.01 0.01 0.01 0.01 0.01 0.00 0.00 0.00 0.00 0.00 0.00 0.00 0.00 0.00 0.00 0.00 0.00
0.00 0.00 0.00 0.00 0.00 0.00 0.00 0.00 0.00 0.00 0.00 0.00 0.00 0.00 0.00 0.00 0.00 0.00 0.00 0.00 0.00 0.00 0.00 0.01 0.00 0.00 0.00 0.01 0.02 0.01 0.01 0.02 0.02 0.03 0.02 0.01 0.02 0.01 0.00 0.00 0.00 0.00 0.00 0.00 0.00 0.00 0.00 0.00 0.00
0.00 0.00 0.00 0.00 0.00 0.00 0.00 0.00 0.00 0.00 0.00 0.00 0.00 0.00 0.00 0.00 0.00 0.00 0.00 0.00 0.00 0.00 0.00 0.00 0.01 0.00 0.00 0.01 0.02 0.02 0.01 0.02 0.03 0.03 0.03 0.03 0.02 0.01 0.01 0.00 0.00 0.00 0.00 0.00 0.00 0.00 0.00 0.00 0.00
0.00 0.00 0.00 0.00 0.00 0.00 0.00 0.00 0.00 0.00 0.00 0.00 0.00 0.00 0.00 0.00 0.00 0.00 0.00 0.00 0.00 0.00 0.00 0.00 0.01 0.01 0.00 0.01 0.01 0.01 0.01 0.02 0.02 0.02 0.03 0.03 0.02 0.02 0.02 0.01 0.00 0.00 0.00 0.00 0.00 0.00 0.00 0.00 0.00
0.00 0.00 0.00 0.00 0.00 0.00 0.00 0.00 0.00 0.00 0.00 0.00 0.00 0.00 0.00 0.00 0.00 0.00 0.00 0.00 0.00 0.00 0.00 0.00 0.00 0.01 0.00 0.00 0.00 0.01 0.01 0.01 0.01 0.02 0.02 0.02 0.03 0.04 0.04 0.03 0.02 0.01 0.01 0.00 0.00 0.00 0.00 0.00 0.00
0.00 0.00 0.00 0.00 0.00 0.00 0.00 0.00 0.00 0.00 0.00 0.00 0.00 0.00 0.00 0.00 0.00 0.00 0.00 0.00 0.00 0.00 0.00 0.00 0.00 0.01 0.01 0.00 0.01 0.01 0.00 0.00 0.01 0.01 0.02 0.03 0.05 0.05 0.05 0.03 0.02 0.01 0.01 0.00 0.00 0.00 0.00 0.00 0.00
0.00 0.00 0.00 0.00 0.00 0.00 0.00 0.00 0.00 0.00 0.00 0.00 0.00 0.00 0.00 0.00 0.00 0.00 0.00 0.00 0.00 0.00 0.00 0.00 0.00 0.01 0.01 0.00 0.00 0.00 0.00 0.00 0.00 0.01 0.02 0.03 0.04 0.03 0.03 0.03 0.02 0.01 0.01 0.01 0.00 0.00 0.00 0.00 0.00
0.00 0.00 0.00 0.00 0.00 0.00 0.00 0.00 0.00 0.00 0.00 0.00 0.00 0.00 0.00 0.00 0.00 0.00 0.00 0.00 0.00 0.00 0.00 0.00 0.00 0.00 0.01 0.01 0.00 0.00 0.00 0.00 0.00 0.01 0.01 0.02 0.02 0.02 0.02 0.02 0.02 0.02 0.01 0.01 0.00 0.00 0.00 0.00 0.00
0.00 0.00 0.00 0.00 0.00 0.00 0.00 0.00 0.00 0.00 0.00 0.00 0.00 0.00 0.00 0.00 0.00 0.00 0.00 0.00 0.00 0.00 0.00 0.00 0.00 0.00 0.01 0.01 0.00 0.00 0.00 0.00 0.00 0.01 0.01 0.01 0.02 0.02 0.01 0.01 0.02 0.01 0.01 0.00 0.00 0.00 0.00 0.00 0.00
0.00 0.00 0.00 0.01 0.01 0.00 0.00 0.00 0.00 0.00 0.00 0.00 0.00 0.00 0.00 0.00 0.00 0.00 0.00 0.00 0.00 0.00 0.00 0.00 0.00 0.00 0.01 0.01 0.00 0.00 0.00 0.00 0.01 0.01 0.01 0.01 0.02 0.02 0.02 0.02 0.02 0.01 0.00 0.00 0.00 0.00 0.00 0.00 0.00
0.00 0.00 0.00 0.00 0.00 0.00 0.00 0.00 0.00 0.00 0.00 0.00 0.00 0.00 0.00 0.00 0.00 0.00 0.00 0.00 0.00 0.00 0.00 0.00 0.00 0.00 0.01 0.01 0.01 0.00 0.00 0.00 0.01 0.01 0.01 0.01 0.02 0.02 0.03 0.02 0.01 0.01 0.00 0.00 0.00 0.00 0.00 0.00 0.00
0.01 0.00 0.00 0.00 0.00 0.00 0.00 0.00 0.00 0.00 0.00 0.00 0.00 0.00 0.00 0.00 0.00 0.00 0.00 0.00 0.00 0.00 0.00 0.00 0.00 0.01 0.01 0.01 0.01 0.00 0.00 0.00 0.01 0.01 0.02 0.01 0.01 0.02 0.02 0.02 0.01 0.00 0.00 0.00 0.00 0.00 0.00 0.00 0.00
0.00 0.00 0.01 0.01 0.01 0.00 0.00 0.00 0.00 0.00 0.00 0.00 0.00 0.00 0.00 0.00 0.00 0.00 0.00 0.00 0.00 0.00 0.00 0.00 0.00 0.01 0.01 0.01 0.00 0.00 0.00 0.00 0.00 0.01 0.01 0.01 0.01 0.01 0.01 0.01 0.00 0.00 0.00 0.00 0.00 0.00 0.00 0.00 0.00
0.00 0.00 0.01 0.01 0.01 0.01 0.00 0.00 0.00 0.00 0.00 0.00 0.00 0.00 0.00 0.00 0.00 0.00 0.00 0.00 0.00 0.00 0.00 0.00 0.00 0.00 0.00 0.01 0.00 0.00 0.00 0.00 0.00 0.01 0.01 0.00 0.00 0.00 0.00 0.00 0.00 0.00 0.00 0.00 0.00 0.00 0.00 0.00 0.00
0.00 0.00 0.01 0.01 0.01 0.01 0.01 0.00 0.00 0.00 0.00 0.00 0.01 0.01 0.00 0.00 0.00 0.00 0.00 0.00 0.01 0.01 0.01 0.01 0.01 0.00 0.00 0.00 0.00 0.00 0.00 0.00 0.00 0.00 0.01 0.00 0.00 0.00 0.00 0.00 0.00 0.00 0.00 0.00 0.00 0.00 0.00 0.00 0.00
MSLP
1011.41 1011.83 1012.29 1012.68 1012.90 1012.88 1012.59 1012.06 1011.35 1010.57 1009.82 1009.20 1008.76 1008.52 1008.46 1008.53 1008.67 1008.84 1009.01 1009.18 1009.37 1009.61 1009.93 1010.34 1010.81 1011.31 1011.81 1012.25 1012.62 1012.91 1013.16 1013.39 1013.66 1013.97 1014.34 1014.74 1015.13 1015.46 1015.69 1015.80 1015.81 1015.76 1015.69 1015.67 1015.73 1015.89 1016.12 1016.39 1016.66
1011.65 1012.11 1012.56 1012.88 1012.98 1012.80 1012.34 1011.66 1010.84 1009.99 1009.23 1008.64 1008.25 1008.07 1008.05 1008.15 1008.30 1008.46 1008.62 1008.80 1009.02 1009.33 1009.74 1010.25 1010.83 1011.44 1012.00 1012.49 1012.87 1013.16 1013.39 1013.60 1013.84 1014.15 1014.52 1014.93 1015.34 1015.69 1015.93 1016.05 1016.07 1016.02 1015.96 1015.95 1016.01 1016.17 1016.39 1016.64 1016.87
1011.86 1012.32 1012.71 1012.92 1012.88 1012.56 1011.97 1011.18 1010.30 1009.44 1008.71 1008.17 1007.85 1007.73 1007.76 1007.87 1008.01 1008.15 1008.29 1008.47 1008.72 1009.08 1009.57 1010.18 1010.87 1011.56 1012.19 1012.72 1013.12 1013.40 1013.60 1013.78 1013.99 1014.28 1014.64 1015.05 1015.46 1015.81 1016.07 1016.20 1016.23 1016.20 1016.17 1016.17 1016.25 1016.42 1016.63 1016.86 1017.06
1012.01 1012.42 1012.71 1012.80 1012.62 1012.16 1011.48 1010.63 1009.75 1008.93 1008.28 1007.84 1007.61 1007.55 1007.62 1007.73 1007.86 1007.97 1008.09 1008.26 1008.52 1008.93 1009.48 1010.17 1010.93 1011.70 1012.38 1012.94 1013.35 1013.62 1013.80 1013.95 1014.14 1014.40 1014.73 1015.12 1015.52 1015.86 1016.12 1016.26 1016.32 1016.32 1016.31 1016.35 1016.45 1016.62 1016.83 1017.05 1017.21
1012.07 1012.39 1012.56 1012.51 1012.21 1011.65 1010.91 1010.07 1009.23 1008.51 1007.97 1007.65 1007.52 1007.54 1007.64 1007.76 1007.87 1007.95 1008.04 1008.20 1008.47 1008.90 1009.49 1010.23 1011.04 1011.85 1012.57 1013.14 1013.55 1013.81 1013.98 1014.11 1014.27 1014.50 1014.81 1015.17 1015.54 1015.87 1016.13 1016.28 1016.35 1016.38 1016.40 1016.47 1016.59 1016.77 1016.98 1017.18 1017.32
1012.04 1012.25 1012.29 1012.11 1011.69 1011.07 1010.32 1009.52 1008.78 1008.19 1007.79 1007.59 1007.57 1007.66 1007.79 1007.92 1008.01 1008.07 1008.13 1008.27 1008.54 1008.97 1009.58 1010.33 1011.16 1011.98 1012.71 1013.28 1013.70 1013.96 1014.12 1014.25 1014.40 1014.61 1014.90 1015.23 1015.58 1015.89 1016.12 1016.28 1016.36 1016.41 1016.46 1016.55 1016.69 1016.88 1017.08 1017.26 1017.38
1011.93 1012.03 1011.94 1011.64 1011.14 1010.49 1009.77 1009.05 1008.43 1007.98 1007.72 1007.64 1007.71 1007.86 1008.02 1008.14 1008.22 1008.25 1008.30 1008.42 1008.67 1009.10 1009.70 1010.44 1011.25 1012.05 1012.76 1013.34 1013.75 1014.03 1014.20 1014.35 1014.51 1014.72 1015.00 1015.31 1015.63 1015.91 1016.14 1016.28 1016.38 1016.44 1016.51 1016.61 1016.76 1016.95 1017.13 1017.29 1017.39
1011.78 1011.76 1011.55 1011.17 1010.63 1009.99 1009.32 1008.70 1008.21 1007.89 1007.75 1007.77 1007.90 1008.07 1008.24 1008.35 1008.40 1008.42 1008.45 1008.56 1008.80 1009.21 1009.78 1010.48 1011.25 1012.01 1012.70 1013.26 1013.68 1013.98 1014.19 1014.37 1014.56 1014.79 1015.07 1015.38 1015.68 1015.95 1016.15 1016.29 1016.39 1016.46 1016.55 1016.66 1016.81 1016.98 1017.15 1017.29 1017.37
1011.60 1011.49 1011.20 1010.76 1010.21 1009.61 1009.02 1008.51 1008.14 1007.92 1007.87 1007.94 1008.09 1008.26 1008.40 1008.48 1008.51 1008.51 1008.53 1008.63 1008.86 1009.24 1009.77 1010.42 1011.13 1011.84 1012.49 1013.03 1013.46 1013.78 1014.04 1014.27 1014.52 1014.79 1015.08 1015.39 1015.69 1015.94 1016.14 1016.28 1016.39 1016.47 1016.57 1016.69 1016.84 1017.00 1017.15 1017.27 1017.33
1011.44 1011.25 1010.91 1010.46 1009.93 1009.39 1008.89 1008.49 1008.21 1008.08 1008.07 1008.14 1008.26 1008.39 1008.47 1008.51 1008.50 1008.48 1008.49 1008.58 1008.80 1009.15 1009.64 1010.23 1010.88 1011.53 1012.13 1012.65 1013.08 1013.44 1013.75 1014.04 1014.34 1014.65 1014.98 1015.31 1015.61 1015.86 1016.06 1016.22 1016.34 1016.45 1016.57 1016.70 1016.86 1017.01 1017.15 1017.26 1017.31
1011.30 1011.06 1010.70 1010.26 1009.79 1009.33 1008.93 1008.63 1008.43 1008.33 1008.32 1008.36 1008.41 1008.45 1008.45 1008.42 1008.36 1008.32 1008.32 1008.41 1008.62 1008.95 1009.39 1009.93 1010.51 1011.09 1011.64 1012.13 1012.57 1012.96 1013.31 1013.66 1014.01 1014.37 1014.73 1015.08 1015.39 1015.67 1015.89 1016.07 1016.23 1016.38 1016.54 1016.71 1016.88 1017.04 1017.18 1017.28 1017.33
1011.19 1010.93 1010.57 1010.17 1009.76 1009.40 1009.10 1008.88 1008.74 1008.65 1008.60 1008.57 1008.52 1008.45 1008.35 1008.24 1008.12 1008.05 1008.04 1008.13 1008.33 1008.63 1009.04 1009.52 1010.03 1010.56 1011.07 1011.54 1011.97 1012.38 1012.78 1013.16 1013.56 1013.95 1014.34 1014.71 1015.05 1015.35 1015.61 1015.85 1016.06 1016.28 1016.49 1016.71 1016.92 1017.11 1017.25 1017.35 1017.41
1011.12 1010.84 1010.50 1010.15 1009.83 1009.56 1009.35 1009.20 1009.09 1008.99 1008.88 1008.76 1008.59 1008.40 1008.20 1008.00 1007.83 1007.72 1007.70 1007.77 1007.96 1008.24 1008.61 1009.04 1009.50 1009.98 1010.45 1010.91 1011.34 1011.77 1012.19 1012.60 1013.02 1013.44 1013.85 1014.24 1014.60 1014.94 1015.26 1015.56 1015.86 1016.16 1016.45 1016.74 1017.00 1017.22 1017.39 1017.50 1017.55
1011.08 1010.79 1010.48 1010.19 1009.95 1009.76 1009.63 1009.52 1009.42 1009.28 1009.11 1008.88 1008.61 1008.31 1008.00 1007.73 1007.50 1007.36 1007.31 1007.37 1007.53 1007.79 1008.12 1008.51 1008.93 1009.38 1009.83 1010.28 1010.73 1011.17 1011.61 1012.05 1012.48 1012.91 1013.33 1013.73 1014.13 1014.51 1014.89 1015.27 1015.66 1016.05 1016.44 1016.80 1017.13 1017.40 1017.59 1017.71 1017.77
1011.05 1010.77 1010.49 1010.26 1010.08 1009.96 1009.86 1009.78 1009.65 1009.47 1009.22 1008.90 1008.54 1008.15 1007.76 1007.43 1007.16 1006.99 1006.91 1006.94 1007.07 1007.29 1007.58 1007.94 1008.34 1008.77 1009.23 1009.70 1010.17 1010.64 1011.11 1011.57 1012.01 1012.45 1012.87 1013.28 1013.70 1014.13 1014.58 1015.04 1015.53 1016.01 1016.49 1016.93 1017.32 1017.63 1017.85 1017.98 1018.03
1011.04 1010.78 1010.54 1010.35 1010.22 1010.12 1010.04 1009.92 1009.75 1009.50 1009.17 1008.77 1008.33 1007.88 1007.46 1007.09 1006.80 1006.60 1006.50 1006.49 1006.58 1006.75 1007.00 1007.32 1007.71 1008.15 1008.64 1009.15 1009.68 1010.20 1010.71 1011.20 1011.67 1012.11 1012.54 1012.97 1013.41 1013.88 1014.38 1014.92 1015.49 1016.06 1016.61 1017.12 1017.56 1017.90 1018.14 1018.27 1018.32
1011.07 1010.84 1010.64 1010.48 1010.36 1010.25 1010.12 1009.94 1009.68 1009.34 1008.92 1008.45 1007.96 1007.49 1007.06 1006.69 1006.40 1006.19 1006.06 1006.01 1006.04 1006.16 1006.36 1006.65 1007.03 1007.50 1008.04 1008.63 1009.24 1009.84 1010.43 1010.98 1011.48 1011.95 1012.39 1012.83 1013.30 1013.80 1014.34 1014.94 1015.56 1016.19 1016.80 1017.35 1017.82 1018.19 1018.44 1018.57 1018.62
1011.13 1010.96 1010.81 1010.67 1010.53 1010.37 1010.14 1009.83 1009.44 1008.97 1008.45 1007.92 1007.41 1006.94 1006.54 1006.21 1005.94 1005.74 1005.59 1005.50 1005.47 1005.52 1005.66 1005.92 1006.31 1006.81 1007.43 1008.11 1008.83 1009.55 1010.24 1010.87 1011.43 1011.94 1012.41 1012.87 1013.35 1013.87 1014.45 1015.07 1015.73 1016.39 1017.03 1017.60 1018.08 1018.46 1018.71 1018.85 1018.89
1011.26 1011.17 1011.07 1010.94 1010.75 1010.48 1010.10 1009.61 1009.04 1008.42 1007.79 1007.19 1006.67 1006.24 1005.90 1005.64 1005.43 1005.26 1005.10 1004.97 1004.88 1004.85 1004.94 1005.16 1005.55 1006.10 1006.79 1007.59 1008.45 1009.30 1010.11 1010.84 1011.49 1012.05 1012.56 1013.05 1013.55 1014.08 1014.66 1015.30 1015.96 1016.62 1017.26 1017.83 1018.31 1018.68 1018.93 1019.08 1019.13
1011.46 1011.47 1011.43 1011.29 1011.03 1010.61 1010.04 1009.33 1008.54 1007.73 1006.98 1006.32 1005.80 1005.43 1005.18 1005.01 1004.89 1004.77 1004.62 1004.45 1004.30 1004.20 1004.22 1004.41 1004.79 1005.39 1006.16 1007.08 1008.07 1009.06 1010.01 1010.86 1011.60 1012.23 1012.78 1013.30 1013.81 1014.35 1014.93 1015.55 1016.20 1016.85 1017.46 1018.01 1018.47 1018.84 1019.09 1019.26 1019.34
1011.72 1011.84 1011.87 1011.72 1011.37 1010.78 1009.98 1009.03 1008.00 1006.99 1006.10 1005.38 1004.88 1004.57 1004.43 1004.38 1004.36 1004.30 1004.18 1003.99 1003.79 1003.63 1003.58 1003.72 1004.10 1004.72 1005.57 1006.59 1007.70 1008.83 1009.90 1010.87 1011.70 1012.40 1013.01 1013.55 1014.07 1014.61 1015.18 1015.78 1016.40 1017.02 1017.60 1018.13 1018.57 1018.93 1019.20 1019.39 1019.52
1012.02 1012.27 1012.36 1012.20 1011.74 1010.99 1009.96 1008.76 1007.49 1006.29 1005.26 1004.48 1003.99 1003.76 1003.72 1003.80 1003.88 1003.90 1003.81 1003.63 1003.38 1003.17 1003.06 1003.16 1003.52 1004.16 1005.06 1006.16 1007.37 1008.61 1009.78 1010.84 1011.75 1012.52 1013.17 1013.74 1014.28 1014.82 1015.38 1015.96 1016.56 1017.14 1017.69 1018.19 1018.62 1018.98 1019.27 1019.50 1019.68
1012.33 1012.70 1012.84 1012.67 1012.13 1011.22 1009.99 1008.56 1007.08 1005.70 1004.55 1003.72 1003.24 1003.07 1003.13 1003.32 1003.50 1003.59 1003.54 1003.36 1003.09 1002.84 1002.69 1002.75 1003.10 1003.75 1004.68 1005.82 1007.10 1008.40 1009.65 1010.78 1011.74 1012.56 1013.24 1013.84 1014.39 1014.94 1015.50 1016.07 1016.65 1017.22 1017.75 1018.23 1018.65 1019.01 1019.32 1019.60 1019.84
1012.60 1013.07 1013.27 1013.09 1012.48 1011.44 1010.06 1008.45 1006.80 1005.28 1004.04 1003.17 1002.70 1002.58 1002.71 1002.96 1003.22 1003.37 1003.35 1003.17 1002.90 1002.62 1002.45 1002.49 1002.83 1003.48 1004.43 1005.60 1006.90 1008.24 1009.52 1010.68 1011.67 1012.51 1013.22 1013.85 1014.42 1014.99 1015.56 1016.14 1016.72 1017.28 1017.80 1018.27 1018.69 1019.05 1019.38 1019.69 1019.98
1012.80 1013.34 1013.58 1013.40 1012.75 1011.64 1010.15 1008.44 1006.69 1005.08 1003.78 1002.88 1002.40 1002.29 1002.45 1002.74 1003.02 1003.19 1003.19 1003.02 1002.75 1002.47 1002.30 1002.35 1002.70 1003.36 1004.31 1005.49 1006.80 1008.14 1009.42 1010.57 1011.57 1012.42 1013.14 1013.79 1014.39 1014.99 1015.59 1016.19 1016.79 1017.36 1017.89 1018.35 1018.76 1019.13 1019.46 1019.78 1020.09
1012.89 1013.46 1013.73 1013.56 1012.89 1011.76 1010.25 1008.50 1006.72 1005.08 1003.76 1002.84 1002.33 1002.20 1002.34 1002.60 1002.86 1003.01 1002.99 1002.83 1002.57 1002.32 1002.18 1002.27 1002.65 1003.34 1004.31 1005.49 1006.79 1008.11 1009.36 1010.49 1011.47 1012.31 1013.04 1013.70 1014.34 1014.98 1015.62 1016.27 1016.90 1017.49 1018.03 1018.49 1018.89 1019.24 1019.56 1019.86 1020.16
1012.83 1013.41 1013.68 1013.52 1012.88 1011.78 1010.30 1008.59 1006.84 1005.24 1003.93 1002.99 1002.45 1002.26 1002.32 1002.50 1002.68 1002.77 1002.71 1002.54 1002.30 1002.10 1002.03 1002.19 1002.65 1003.40 1004.40 1005.59 1006.87 1008.16 1009.37 1010.46 1011.40 1012.22 1012.96 1013.64 1014.31 1014.99 1015.69 1016.39 1017.06 1017.68 1018.23 1018.69 1019.07 1019.39 1019.66 1019.92 1020.18
1012.61 1013.17 1013.43 1013.28 1012.68 1011.65 1010.26 1008.66 1007.01 1005.48 1004.21 1003.27 1002.69 1002.41 1002.35 1002.40 1002.46 1002.44 1002.33 1002.14 1001.93 1001.80 1001.83 1002.11 1002.66 1003.50 1004.56 1005.77 1007.05 1008.30 1009.47 1010.51 1011.41 1012.21 1012.94 1013.64 1014.34 1015.07 1015.82 1016.57 1017.28 1017.92 1018.48 1018.93 1019.27 1019.54 1019.76 1019.95 1020.14
1012.25 1012.74 1012.97 1012.83 1012.28 1011.33 1010.08 1008.62 1007.12 1005.71 1004.52 1003.60 1002.97 1002.59 1002.39 1002.28 1002.19 1002.05 1001.86 1001.66 1001.49 1001.45 1001.61 1002.02 1002.71 1003.65 1004.79 1006.04 1007.32 1008.55 1009.67 1010.66 1011.52 1012.29 1013.01 1013.72 1014.46 1015.22 1016.02 1016.80 1017.55 1018.21 1018.75 1019.18 1019.48 1019.69 1019.83 1019.93 1020.04
1011.76 1012.16 1012.32 1012.17 1011.66 1010.82 1009.72 1008.44 1007.12 1005.86 1004.77 1003.90 1003.24 1002.77 1002.44 1002.17 1001.93 1001.67 1001.42 1001.21 1001.10 1001.16 1001.45 1002.01 1002.85 1003.91 1005.12 1006.42 1007.70 1008.91 1009.99 1010.93 1011.75 1012.49 1013.19 1013.91 1014.66 1015.45 1016.27 1017.08 1017.84 1018.50 1019.03 1019.42 1019.67 1019.81 1019.87 1019.89 1019.90
Thickness
5707 5715 5721 5715 5697 5691 5698 5722 5743 5751 5756 5767 5770 5768 5763 5759 5749 5738 5767 5780 5775 5767 5760 5756 5752 5749 5746 5744 5742 5740 5738 5737 5735 5733 5731 5729 5727 5725 5724 5723 5722 5721 5721 5721 5721 5720 5719 5717 5715
5702 5711 5710 5700 5684 5679 5702 5728 5738 5747 5755 5760 5764 5762 5759 5761 5764 5762 5768 5772 5770 5763 5757 5753 5749 5745 5742 5739 5737 5735 5733 5731 5730 5728 5726 5724 5722 5720 5719 5718 5717 5716 5715 5715 5715 5714 5713 5712 5710
5697 5704 5694 5688 5683 5685 5706 5735 5743 5749 5754 5753 5751 5759 5760 5756 5765 5764 5767 5770 5766 5760 5754 5748 5745 5741 5737 5734 5732 5730 5728 5726 5724 5723 5721 5719 5717 5715 5714 5712 5711 5710 5710 5710 5709 5709 5708 5706 5705
5693 5691 5688 5682 5686 5705 5716 5729 5742 5740 5744 5748 5747 5750 5760 5764 5769 5767 5766 5765 5761 5756 5750 5743 5740 5736 5733 5730 5727 5725 5723 5721 5719 5717 5716 5714 5712 5710 5708 5707 5706 5705 5705 5705 5704 5704 5703 5702 5701
5687 5680 5671 5674 5689 5710 5725 5736 5739 5733 5734 5740 5743 5740 5743 5760 5766 5763 5761 5760 5756 5752 5745 5738 5735 5731 5728 5725 5722 5720 5718 5716 5714 5712 5711 5709 5707 5705 5704 5702 5701 5701 5700 5700 5700 5699 5698 5697 5696
5673 5675 5666 5670 5691 5710 5723 5736 5735 5728 5730 5737 5738 5734 5735 5755 5756 5755 5756 5755 5754 5748 5740 5733 5730 5727 5724 5721 5718 5716 5713 5711 5709 5708 5706 5705 5702 5701 5699 5698 5697 5696 5696 5696 5695 5695 5694 5693 5692
5666 5666 5667 5678 5691 5705 5723 5735 5728 5722 5721 5730 5738 5730 5732 5744 5751 5752 5751 5751 5749 5744 5736 5728 5725 5722 5719 5717 5714 5712 5709 5707 5705 5703 5702 5700 5698 5696 5695 5694 5693 5692 5692 5691 5691 5690 5689 5689 5688
5670 5666 5667 5676 5685 5702 5726 5733 5730 5724 5721 5735 5737 5726 5722 5731 5747 5748 5746 5745 5743 5739 5733 5726 5722 5719 5716 5713 5710 5708 5705 5703 5701 5699 5697 5695 5694 5692 5691 5690 5689 5688 5687 5687 5686 5685 5685 5684 5684
5665 5653 5659 5675 5685 5699 5719 5720 5723 5729 5723 5725 5731 5730 5724 5733 5740 5738 5735 5734 5734 5732 5730 5726 5722 5718 5715 5711 5708 5704 5702 5699 5697 5695 5694 5692 5691 5689 5687 5686 5685 5683 5683 5682 5682 5681 5681 5680 5680
5651 5645 5661 5683 5693 5698 5709 5711 5712 5712 5708 5709 5717 5726 5729 5728 5727 5725 5723 5723 5724 5724 5725 5725 5722 5718 5715 5711 5705 5702 5699 5696 5694 5692 5691 5690 5689 5688 5685 5682 5681 5680 5679 5678 5678 5677 5677 5676 5675
5649 5649 5664 5679 5690 5693 5694 5699 5707 5700 5694 5704 5709 5716 5721 5721 5721 5720 5720 5720 5720 5721 5722 5723 5721 5717 5714 5710 5705 5702 5699 5695 5693 5691 5689 5689 5687 5685 5682 5679 5677 5676 5674 5673 5673 5673 5673 5673 5671
5646 5655 5664 5672 5679 5681 5682 5686 5689 5692 5695 5709 5714 5716 5717 5717 5718 5719 5720 5721 5721 5719 5719 5719 5719 5716 5712 5709 5705 5703 5700 5696 5693 5693 5689 5688 5686 5683 5680 5677 5674 5673 5671 5670 5669 5668 5668 5667 5666
5637 5646 5658 5666 5669 5671 5672 5671 5674 5682 5695 5703 5707 5709 5710 5714 5717 5719 5722 5723 5722 5719 5718 5717 5716 5713 5710 5707 5704 5702 5699 5696 5694 5692 5689 5686 5683 5679 5677 5675 5672 5670 5668 5665 5664 5663 5661 5660 5659
5635 5640 5647 5655 5660 5662 5660 5662 5664 5675 5687 5691 5695 5698 5704 5706 5710 5712 5716 5718 5720 5720 5718 5716 5713 5711 5708 5705 5701 5699 5697 5694 5692 5688 5685 5683 5679 5675 5673 5670 5667 5664 5662 5660 5657 5655 5654 5652 5650
5625 5624 5632 5644 5650 5653 5652 5652 5661 5673 5678 5680 5687 5692 5698 5702 5705 5707 5712 5715 5717 5718 5717 5714 5712 5709 5706 5703 5699 5697 5695 5692 5689 5685 5682 5679 5676 5672 5669 5665 5661 5658 5656 5653 5650 5648 5646 5644 5642
5609 5609 5615 5639 5647 5649 5640 5641 5662 5677 5677 5676 5682 5687 5692 5697 5702 5706 5711 5714 5716 5716 5714 5713 5712 5707 5704 5700 5697 5695 5692 5689 5686 5682 5678 5675 5672 5668 5664 5659 5655 5652 5649 5645 5641 5639 5636 5634 5632
5597 5601 5614 5632 5646 5646 5640 5641 5659 5674 5677 5676 5680 5684 5688 5693 5700 5705 5710 5712 5714 5713 5712 5710 5709 5706 5702 5697 5694 5691 5689 5685 5682 5679 5675 5671 5668 5663 5658 5654 5650 5646 5642 5637 5634 5629 5627 5624 5622
5595 5600 5614 5625 5638 5638 5635 5641 5653 5664 5669 5671 5676 5681 5685 5690 5697 5704 5708 5711 5712 5712 5711 5708 5706 5703 5699 5693 5689 5685 5682 5679 5676 5673 5670 5666 5662 5658 5652 5647 5643 5639 5633 5629 5625 5620 5617 5614 5613
5596 5600 5608 5621 5633 5629 5630 5636 5647 5657 5662 5667 5672 5676 5681 5687 5696 5701 5705 5708 5708 5708 5707 5705 5702 5699 5695 5688 5683 5679 5674 5671 5668 5666 5664 5661 5656 5651 5645 5640 5635 5630 5625 5621 5617 5613 5609 5604 5604
5587 5588 5595 5607 5619 5620 5622 5632 5645 5657 5664 5669 5672 5676 5679 5683 5688 5694 5698 5700 5701 5701 5701 5701 5698 5695 5692 5687 5682 5676 5668 5662 5658 5657 5655 5653 5648 5643 5637 5632 5626 5622 5617 5613 5608 5605 5600 5595 5593
5577 5579 5586 5592 5601 5609 5613 5628 5649 5669 5673 5674 5676 5678 5680 5681 5683 5686 5689 5691 5693 5693 5694 5695 5693 5690 5686 5682 5675 5665 5657 5650 5646 5644 5643 5641 5638 5634 5629 5624 5619 5614 5609 5604 5599 5596 5592 5586 5582
5569 5581 5584 5585 5583 5591 5604 5602 5642 5659 5667 5672 5674 5674 5676 5678 5679 5680 5681 5682 5684 5685 5687 5687 5686 5684 5680 5676 5668 5662 5655 5647 5641 5637 5633 5630 5628 5624 5620 5615 5611 5606 5600 5595 5591 5587 5583 5578 5572
5569 5574 5575 5577 5576 5576 5591 5589 5628 5650 5654 5663 5668 5670 5671 5672 5671 5671 5672 5674 5676 5677 5677 5677 5678 5676 5673 5669 5664 5657 5650 5643 5634 5628 5624 5621 5618 5615 5611 5607 5603 5597 5591 5586 5582 5576 5573 5568 5563
5567 5563 5565 5567 5564 5562 5586 5589 5618 5641 5651 5655 5659 5660 5661 5662 5662 5662 5663 5664 5664 5665 5665 5666 5666 5666 5665 5661 5657 5651 5645 5637 5628 5622 5617 5612 5609 5606 5602 5599 5594 5589 5582 5577 5572 5567 5562 5557 5553
5556 5550 5550 5554 5554 5564 5593 5598 5618 5640 5648 5647 5646 5646 5647 5647 5646 5646 5648 5648 5649 5650 5652 5654 5655 5654 5654 5651 5648 5643 5638 5631 5624 5619 5613 5608 5602 5598 5594 5590 5585 5579 5573 5568 5563 5557 5551 5546 5541
5549 5550 5550 5555 5566 5583 5601 5599 5621 5639 5643 5641 5638 5635 5633 5632 5630 5631 5633 5634 5635 5637 5639 5641 5642 5642 5642 5639 5636 5633 5627 5621 5616 5612 5608 5603 5597 5592 5587 5582 5576 5570 5564 5558 5553 5547 5541 5536 5531
5545 5545 5554 5549 5551 5547 5572 5598 5620 5633 5630 5627 5623 5619 5616 5615 5616 5617 5619 5620 5622 5624 5626 5629 5630 5629 5629 5627 5624 5620 5616 5611 5607 5602 5599 5594 5589 5583 5579 5574 5567 5560 5554 5549 5543 5537 5531 5526 5521
5548 5548 5542 5531 5528 5540 5569 5588 5601 5615 5612 5611 5607 5603 5602 5603 5603 5603 5604 5606 5608 5611 5615 5617 5618 5617 5615 5613 5611 5608 5604 5600 5597 5594 5591 5586 5581 5576 5570 5564 5558 5551 5545 5539 5533 5527 5522 5517 5512
5538 5538 5540 5537 5541 5534 5544 5577 5612 5604 5602 5597 5594 5592 5590 5589 5587 5587 5587 5590 5593 5597 5601 5603 5603 5602 5601 5599 5596 5593 5590 5588 5586 5584 5582 5578 5573 5567 5562 5556 5549 5542 5535 5529 5523 5518 5512 5507 5502
5541 5540 5537 5526 5532 5538 5535 5565 5601 5599 5597 5592 5587 5584 5581 5577 5574 5572 5571 5572 5576 5581 5585 5587 5587 5587 5586 5584 5581 5578 5576 5576 5576 5574 5571 5568 5564 5558 5552 5546 5539 5532 5525 5519 5513 5508 5502 5497 5491